Regional Weather Roundup
Issued by NWS Cleveland, OH

Home | Current Version | Previous Version | Text Only | Print | Product List | Glossary Off
Versions: 1 2 3 4 5 6 7 8 9 10 11 12 13 14 15 16 17 18 19 20 21 22 23 24 25 26 27 28 29 30 31 32 33 34 35 36 37 38 39 40 41 42 43 44 45 46 47 48 49 50

000
ASUS41 KCLE 130800
RWRCLE
OHIO REGIONAL WEATHER ROUNDUP
NATIONAL WEATHER SERVICE WILMINGTON, OH
300 AM EST WED DEC 13 2017

NOTE: "FAIR" INDICATES FEW OR NO CLOUDS BELOW 12,000 FEET WITH NO
SIGNIFICANT WEATHER AND/OR OBSTRUCTIONS TO VISIBILITY.

OHZ001>008-015>018-024>027-034-035-043-044-130900-
   NORTHWEST OHIO

CITY           SKY/WX    TMP DP  RH WIND       PRES   REMARKS
DEFIANCE       CLOUDY    18  12  77 S7        29.89F WCI   9
FINDLAY        CLOUDY    19   9  65 W10       29.89S WCI   7
TOLEDO EXPRESS CLOUDY    18  11  74 W10       29.87F WCI   6
TOLEDO EXEC    CLOUDY    19   7  59 W13       29.89F WCI   6
LIMA           CLOUDY    17  11  77 W12       29.89F WCI   4
$$

OHZ009>014-019>023-028>033-038-089-130900-
   NORTHEAST OHIO

CITY           SKY/WX    TMP DP  RH WIND       PRES   REMARKS
CLE-HOPKINS    FLURRIES  20   8  60 NW15      29.86R WCI   6
CLE-LAKEFRONT  CLOUDY    21   8  57 NW22G33   29.82S WCI   5
CUY CO. ARPT   NOT AVBL
LORAIN-ELYRIA  CLOUDY    18   3  52 NW15G22   29.85S WCI   4
ASHTABULA      CLOUDY    17   7  64 NW15G23   29.77R WCI   2
AKRON-CANTON   FLURRIES  15   6  67 W12       29.81R WCI   2
WOOSTER        NOT AVBL
MANSFIELD      CLOUDY    16   4  59 W8        29.84S WCI   5
YOUNGSTOWN     FLURRIES  16   8  71 W14       29.76R WCI   2
$$

OHZ042-051>053-060>062-070>072-077>081-130900-
  SOUTHWEST OHIO

CITY           SKY/WX    TMP DP  RH WIND       PRES   REMARKS
CINC-COVINGTON FAIR      17   9  70 SW5       29.96F WCI  10
CINC-LUNKEN    FAIR      20   9  62 W8        30.01S WCI  10
HAMILTON       FAIR      17  12  80 W5        29.99S WCI  10
DAYTON         NOT AVBL
WRIGHT-PAT AFB FAIR      16   8  69 SW8       29.93S WCI   5
DAYTON GENERAL FAIR      16   8  71 SW6       29.93S WCI   7
WILMINGTON     FAIR      15   9  76 W7        29.93S WCI   5
$$

OHZ036-037-039>041-045>050-054>059-063>069-073>076-082>088-130900-
  CENTRAL AND SOUTHEAST OHIO

CITY           SKY/WX    TMP DP  RH WIND       PRES   REMARKS
COLUMBUS       FLURRIES  20  13  74 W10       29.92R WCI   9
OSU AIRPORT    CLOUDY    19  12  74 W14       29.91S WCI   6
BOLTON FIELD   NOT AVBL
RICKENBACK AFB NOT AVBL
NEWARK         LGT SNOW  19  14  81 W6        29.90R WCI  11
MARION           N/A     18  11  74 W7        29.89S WCI   9
LANCASTER      CLOUDY    20  10  65 W8        29.92R WCI  10
ZANESVILLE     CLOUDY    20   7  57 W9        29.90R WCI   9
NEW PHILLY     FAIR      16   2  54 W8        29.87R WCI   5
$$




USA.gov is the U.S. government's official web portal to all federal, state and local government web resources and services.